Yuma, AZ

1:02 PM MST on February 06, 2016 (GMT -0700)
Yuma Marine Corps Air Station

Weather History for KNYL - February, 2013

Change the Weather History Date:

Thursday, February 14, 2013

  Actual Average Record
Temperature  
Mean Temperature 60 °F 62 °F  
Max Temperature 75 °F 74 °F 94 °F (1957)
Min Temperature 44 °F 50 °F 28 °F (1908)
Degree Days  
Heating Degree Days 5 4  
Month to date heating degree days 79 66  
Since 1 July heating degree days 600 574  
Cooling Degree Days 0 1  
Month to date cooling degree days 3 13  
Year to date cooling degree days 6 19  
Growing Degree Days 10 (Base 50)    
Moisture  
Dew Point 26 °F    
Average Humidity 34    
Maximum Humidity 53    
Minimum Humidity 15    
Precipitation  
Precipitation 0.00 in 0.01 in 0.48 in (1931)
Month to date precipitation T 0.18  
Year to date precipitation 1.02 0.55  
Sea Level Pressure  
Sea Level Pressure 30.10 in    
Wind  
Wind Speed 7 mph (North)    
Max Wind Speed 20 mph    
Max Gust Speed 26 mph    
Visibility 10 miles    
Events      
T = Trace of Precipitation, MM = Missing Value Source: NWS Daily Summary

Daily Weather History Graph

Daily Weather History Graph

Search for Another Location

Airport or City:

Trip Planner

Search our weather history database for the weather conditions in past years. The results will help you decide how hot, cold, wet, or windy it might be!

Date:

Astronomy

Feb. 14, 2013 Rise Set
Actual Time 7:22 AM MST 6:23 PM MST
Civil Twilight 6:56 AM MST 6:48 PM MST
Nautical Twilight 6:28 AM MST 7:17 PM MST
Astronomical Twilight 5:59 AM MST 7:46 PM MST
Moon 9:45 AM MST (2/14) 11:09 PM MST (2/14)
Length of Visible Light 11h 51m
Length of Day
11h 01m
Waxing Crescent, 22% of the Moon is Illuminated
Feb 14
Waxing Crescent
Feb 17
First Quarter
Feb 25
Full
Mar 4
Last Quarter
Mar 11
New

Hourly Weather History & Observations

Time (MST) Temp. Dew Point Humidity Pressure Visibility Wind Dir Wind Speed Gust Speed Precip Events Conditions
12:55 AM 50.0 °F 27.0 °F 41% 30.12 in 10.0 mi Calm Calm - N/A   Clear
1:55 AM 48.9 °F 27.0 °F 43% 30.12 in 10.0 mi Calm Calm - N/A   Clear
2:55 AM 48.9 °F 26.1 °F 41% 30.12 in 10.0 mi ENE 3.5 mph - N/A   Clear
3:55 AM 46.9 °F 28.0 °F 48% 30.10 in 10.0 mi NE 4.6 mph - N/A   Clear
4:55 AM 46.9 °F 27.0 °F 46% 30.10 in 10.0 mi East 3.5 mph - N/A   Clear
5:55 AM 46.0 °F 27.0 °F 47% 30.11 in 10.0 mi Calm Calm - N/A   Clear
6:55 AM 45.0 °F 28.0 °F 52% 30.11 in 10.0 mi Calm Calm - N/A   Clear
7:55 AM 44.1 °F 28.9 °F 55% 30.13 in 10.0 mi Calm Calm - N/A   Partly Cloudy
8:55 AM 53.1 °F 28.9 °F 40% 30.14 in 10.0 mi Calm Calm - N/A   Partly Cloudy
9:55 AM 57.9 °F 26.1 °F 30% 30.15 in 10.0 mi North 5.8 mph - N/A   Partly Cloudy
10:55 AM 64.9 °F 26.1 °F 23% 30.19 in 10.0 mi North 4.6 mph - N/A   Partly Cloudy
11:55 AM 70.0 °F 23.0 °F 17% 30.15 in 10.0 mi North 16.1 mph - N/A   Partly Cloudy
12:55 PM 72.0 °F 23.0 °F 16% 30.12 in 10.0 mi North 16.1 mph 24.2 mph N/A   Partly Cloudy
1:55 PM 73.0 °F 23.0 °F 15% 30.08 in 10.0 mi North 20.7 mph 25.3 mph N/A   Partly Cloudy
2:55 PM 73.9 °F 23.0 °F 15% 30.06 in 10.0 mi North 15.0 mph 23.0 mph N/A   Scattered Clouds
3:55 PM 75.0 °F 24.1 °F 15% 30.05 in 10.0 mi North 15.0 mph - N/A   Mostly Cloudy
4:55 PM 73.9 °F 24.1 °F 16% 30.04 in 10.0 mi North 9.2 mph 17.3 mph N/A   Mostly Cloudy
5:55 PM 72.0 °F 26.1 °F 18% 30.04 in 10.0 mi North 6.9 mph - N/A   Mostly Cloudy
6:55 PM 68.0 °F 26.1 °F 21% 30.05 in 10.0 mi NNW 4.6 mph - N/A   Mostly Cloudy
7:55 PM 66.0 °F 26.1 °F 22% 30.07 in 10.0 mi NW 5.8 mph - N/A   Mostly Cloudy
8:55 PM 64.9 °F 26.1 °F 23% 30.09 in 10.0 mi NNW 4.6 mph - N/A   Mostly Cloudy
9:55 PM 62.1 °F 26.1 °F 25% 30.11 in 10.0 mi North 4.6 mph - N/A   Mostly Cloudy
10:55 PM 64.0 °F 24.1 °F 22% 30.11 in 10.0 mi North 6.9 mph - N/A   Mostly Cloudy
11:55 PM 64.9 °F 23.0 °F 20% 30.12 in 10.0 mi North 10.4 mph - N/A   Mostly Cloudy